Station Name: NAVAN (Tara Mines)
Station Height: 52 M 
Latitude:53.658  ,Longitude: -6.718


date: -   09 to 09 utc
rain: -   Precipitation Amount (mm)
maxt: -   Maximum Temperature (C)
mint: -   Minimum Temperature (C)
gmin: -   09utc Grass Minimum Temperature (C)
soil: -   10cm Soil Temperature (C)
ind:  -	  Indicator

date,ind,rain,ind,maxt,ind,mint,gmin,soil
01-dec-1986,0,0.000,0,14.3,0,5.5,3.9, 
02-dec-1986,0,0.300,0,14.6,0,3.2,9.0, 
03-dec-1986,0,6.100,0,13.6,0,10.3,9.8, 
04-dec-1986,0,8.000,0,13.9,0,7.4,6.5, 
05-dec-1986,0,0.100,0,7.9,0,5.5,4.1, 
06-dec-1986,0,12.000,0,9.5,1,-2.0,-6.3, 
07-dec-1986,0,5.600,0,8.8,0,0.7,-0.5, 
08-dec-1986,0,9.000,0,5.5,0,3.2,0.0, 
09-dec-1986,0,0.600,0,5.8,1,-0.6,-3.6, 
10-dec-1986,0,10.400,0,10.2,1,-0.6,-4.5, 
11-dec-1986,4,0.000,0,7.2,0,5.0,3.0, 
12-dec-1986,0,6.100,0,9.6,0,0.0,-2.6, 
13-dec-1986,4,0.000,0,4.8,0,2.2,0.5, 
14-dec-1986,0,9.600,0,10.8,1,-3.1,-7.8, 
15-dec-1986,0,1.300,0,6.5,1,-2.5,-5.3, 
16-dec-1986,0,1.000,0,7.1,0,0.3,-2.0, 
17-dec-1986,0,9.100,0,10.6,0,0.4,-1.5, 
18-dec-1986,0,9.700,0,6.0,0,3.3,1.2, 
19-dec-1986,0,2.500,0,4.4,0,0.1,-2.5, 
20-dec-1986,4,0.000,0,4.9,0,0.5,-1.6, 
21-dec-1986,0,0.000,0,4.5,0,0.0,-3.1, 
22-dec-1986,4,0.000,0,3.7,1,-1.5,-6.7, 
23-dec-1986,4,0.000,0,4.5,1,-1.6,-6.0, 
24-dec-1986,0,2.100,0,10.6,0,2.9,1.6, 
25-dec-1986,0,1.000,0,7.2,0,4.2,3.4, 
26-dec-1986,4,0.000,0,6.0,0,0.4,-4.2, 
27-dec-1986,0,0.800,0,9.5,0,2.0,-0.6, 
28-dec-1986,4,0.000,0,11.3,0,4.0,2.3, 
29-dec-1986,0,9.700,0,11.3,0,8.8,7.3, 
30-dec-1986,0,8.200,0,11.1,0,8.3,7.7, 
31-dec-1986,0,4.300,0,8.1,0,5.3,2.5, 
01-jan-1987,0,1.300,0,8.4,0,5.1,2.8, 
02-jan-1987,4,0.000,0,6.0,0,4.8,2.3, 
03-jan-1987,0,2.700,0,10.1,1,-4.0,-8.0, 
04-jan-1987,0,1.400,0,10.3,1,-4.0,-4.6, 
05-jan-1987,4,0.000,0,6.8,0,3.8,1.2, 
06-jan-1987,0,0.000,0,5.6,0,2.5,-1.0, 
07-jan-1987,0,0.000,0,4.1,1,-5.0,-10.5, 
08-jan-1987,0,4.700,0,5.0,1,-4.5,-9.7, 
09-jan-1987,0,1.000,0,7.0,1,-2.0,-4.2, 
10-jan-1987,0,1.000,0,5.8,0,1.8,-0.3, 
11-jan-1987,1,0.200,1,-0.1,1,-0.5,-1.5, 
12-jan-1987,1,4.100,1,-2.8,1,-4.8,-5.7, 
13-jan-1987,1,9.000,1,-2.5,1,-6.8,-8.5, 
14-jan-1987,1,3.000,0,1.9,1,-6.7,-8.0, 
15-jan-1987,4,0.000,0,2.6,1,-3.1,-3.1, 
16-jan-1987,0,2.200,0,2.4,0,0.5,-0.6, 
17-jan-1987,0,1.300,0,5.6,0,0.5,-0.6, 
18-jan-1987,0,1.600,0,7.5,0,0.9,-0.1, 
19-jan-1987,0,2.000,0,10.1,0,1.0, , 
20-jan-1987,4,0.000,0,10.8,0,7.3,6.5, 
21-jan-1987,4,0.000,0,9.8,0,5.6,6.1, 
22-jan-1987,0,0.000,0,8.8,0,6.7,5.5, 
23-jan-1987,0,0.000,0,8.7,0,6.0,4.5, 
24-jan-1987,0,0.000,0,9.3,1,-0.8,-3.4, 
25-jan-1987,0,0.000,0,6.1,0,0.6,0.7, 
26-jan-1987,0,0.000,0,6.3,0,3.9,3.0, 
27-jan-1987,0,0.000,0,4.9,1,-0.9,-6.6, 
28-jan-1987,0,0.000,0,6.4,1,-0.1,-5.2, 
29-jan-1987,0,0.000,0,4.8,0,0.0,-4.1, 
30-jan-1987,0,0.000,0,4.6,1,-6.3,-11.3, 
31-jan-1987,4,0.000,0,5.1,1,-9.3,-14.8, 
01-feb-1987,0,3.100,0,9.3,1,-6.0,-8.8, 
02-feb-1987,4,0.000,0,11.8,0,4.5,1.6, 
03-feb-1987,0,0.000,0,8.1,0,4.5,0.5, 
04-feb-1987,0,1.000,0,10.2,0,1.0,-3.9, 
05-feb-1987,0,1.000,0,12.1,0,4.1,3.9, 
06-feb-1987,4,0.000,0,9.8,0,6.7,4.3, 
07-feb-1987,0,8.200,0,10.6,1,-1.2,-5.8, 
08-feb-1987,0,4.000,0,12.1,0,0.6,-0.3, 
09-feb-1987,0,4.400,0,9.9,0,4.5,-0.2, 
10-feb-1987,0,0.000,0,6.7,0,1.5,-1.3, 
11-feb-1987,0,1.000,0,4.8,1,-2.5,-9.5, 
12-feb-1987,0,0.000,0,6.4,1,-0.5,-1.9, 
13-feb-1987,0,0.000,0,6.0,1,-3.6,-9.8, 
14-feb-1987,0,0.000,0,6.3,1,-3.9,-9.9, 
15-feb-1987,0,0.000,0,6.3,1,-6.3,-8.1, 
16-feb-1987,0,0.000,0,3.0,1,-6.0,-10.2, 
17-feb-1987,0,0.000,0,3.8,1,-5.2,-10.5, 
18-feb-1987,4,0.000,0,4.0,1,-5.5,-8.7, 
19-feb-1987,4,0.000,0,7.5,1,-4.9,-8.8, 
20-feb-1987,0,0.000,0,5.8,0,2.0,0.5, 
21-feb-1987,0,0.000,0,6.6,1,-3.6,-10.5, 
22-feb-1987,0,0.000,0,6.0,1,-0.4,-7.0, 
23-feb-1987,0,0.000,0,5.7,1,-3.5,-9.1, 
24-feb-1987,0,0.000,0,5.9,1,-1.4,-1.1, 
25-feb-1987,0,5.200,0,7.3,0,1.6,-0.1, 
26-feb-1987,0,8.100,0,13.3,0,2.5,1.2, 
27-feb-1987,0,1.900,0,14.8,0,7.0,6.5, 
28-feb-1987,0,2.100,0,11.7,0,6.6,4.2, 
01-mar-1987,0,12.500, , , , , , 
02-mar-1987,0,0.100, , , , , , 
03-mar-1987,0,4.300, , , , , , 
04-mar-1987,0,0.400, , , , , , 
05-mar-1987,0,3.100, , , , , , 
06-mar-1987,0,5.800, , , , , , 
07-mar-1987,0,3.600, , , , , , 
08-mar-1987,0,0.100, , , , , , 
09-mar-1987,0,0.000, , , , , , 
10-mar-1987,0,0.000, , , , , , 
11-mar-1987,0,0.000, , , , , , 
12-mar-1987,4,0.000, , , , , , 
13-mar-1987,0,0.900, , , , , , 
14-mar-1987,0,0.400, , , , , , 
15-mar-1987,0,0.200, , , , , , 
16-mar-1987,0,0.600, , , , , , 
17-mar-1987,0,8.400, , , , , , 
18-mar-1987,0,2.900, , , , , , 
19-mar-1987,0,0.300, , , , , , 
20-mar-1987,4,0.000, , , , , , 
21-mar-1987,0,0.300, , , , , , 
22-mar-1987,0,3.500, , , , , , 
23-mar-1987,0,0.500, , , , , , 
24-mar-1987,0,2.000, , , , , , 
25-mar-1987,0,2.600, , , , , , 
26-mar-1987,0,12.200, , , , , , 
27-mar-1987,0,1.900, , , , , , 
28-mar-1987,0,1.600, , , , , , 
29-mar-1987,0,1.100, , , , , , 
30-mar-1987,0,1.400, , , , , , 
31-mar-1987,0,1.700, , , , , , 
01-apr-1987,0,4.000,0,8.5,0,3.5,1.8, 
02-apr-1987,0,8.500,0,7.8,0,2.1,-1.6, 
03-apr-1987,0,3.900,0,7.9,0,3.3,2.9, 
04-apr-1987,0,15.100,0,6.8,0,5.5,3.3, 
05-apr-1987,0,1.600,0,7.1,0,5.2,4.4, 
06-apr-1987,0,3.000,0,9.1,0,5.1,1.5, 
07-apr-1987,0,3.000,0,10.5,0,4.5,-0.9, 
08-apr-1987,0,0.200,0,10.6,0,5.7,3.7, 
09-apr-1987,0,2.700,0,9.1,0,5.2,-0.1, 
10-apr-1987,0,8.100,0,10.5,0,0.5,-2.8, 
11-apr-1987,4,0.000,0,10.5,0,2.0,-0.7, 
12-apr-1987,0,0.800,0,13.6,1,-3.5,-8.5, 
13-apr-1987,0,0.000,0,14.9,0,4.8,8.5, 
14-apr-1987,0,0.000,0,15.1,0,7.4,3.7, 
15-apr-1987,4,0.000,0,15.2,0,7.0,3.2, 
16-apr-1987,4,0.000,0,15.3,0,8.4,5.1, 
17-apr-1987,0,0.000,0,19.6,0,4.6,-1.6, 
18-apr-1987,0,0.100,0,15.6,0,11.6,8.0, 
19-apr-1987,0,2.300,0,12.4,0,8.3,5.4, 
20-apr-1987,4,0.000,0,11.7,0,3.1,-0.5, 
21-apr-1987,0,0.000,0,15.1,0,4.6,1.2, 
22-apr-1987,0,0.800,0,13.6,0,3.9,-1.6, 
23-apr-1987,0,0.000,0,14.6,0,8.8,7.8, 
24-apr-1987,4,0.000,0,17.3,0,3.5,-0.5, 
25-apr-1987,0,0.000,0,14.7,0,8.0,1.7, 
26-apr-1987,0,0.000,0,20.5,0,5.0,1.4, 
27-apr-1987,0,0.100,0,20.8,0,7.6,3.7, 
28-apr-1987,0,0.300,0,20.4,0,4.3,0.6, 
29-apr-1987,0,0.000,0,20.3,0,9.2,2.9, 
30-apr-1987,0,8.000,0,16.0,0,10.3,3.9, 
01-may-1987,0,3.100,0,12.7,0,5.4, , 
02-may-1987,0,1.800,0,10.4,0,1.9, , 
03-may-1987,4,0.000,0,9.9,0,4.7, , 
04-may-1987,0,0.000,0,12.9,0,3.2, , 
05-may-1987,0,0.000,0,12.9,0,7.6, , 
06-may-1987,0,0.000,0,16.1,0,8.5, , 
07-may-1987,0,0.000,0,18.7,0,1.9, , 
08-may-1987,0,0.000,0,18.5,0,4.4, , 
09-may-1987,0,0.000,0,13.6,0,7.3, , 
10-may-1987,4,0.000,0,13.3,0,5.8, , 
11-may-1987,0,0.400,0,13.7,0,8.6, , 
12-may-1987,0,0.700,0,12.0,0,7.0, , 
13-may-1987,0,2.500,0,11.4,0,3.6, , 
14-may-1987,0,3.400,0,12.5,0,6.6, , 
15-may-1987,1,0.200,2,12.0,0,3.0, , 
16-may-1987,1,3.000,0,12.5,2,2.0, , 
17-may-1987,0,0.100,0,12.7,2,7.4, , 
18-may-1987,0,0.100,0,13.3,0,5.7, , 
19-may-1987,0,0.000,2,13.0,0,5.8, , 
20-may-1987,0,0.000,0,17.1,2,2.0, , 
21-may-1987,0,0.000,0,16.7,0,4.0, , 
22-may-1987,0,1.300,0,13.3,0,7.4, , 
23-may-1987,4,0.000,0,12.8,0,7.8, , 
24-may-1987,0,0.100,0,14.3,0,5.1, , 
25-may-1987,0,0.000,0,16.4,0,8.9, , 
26-may-1987,0,0.000,0,17.6,0,6.5, , 
27-may-1987,0,0.000,0,18.3,0,9.5, , 
28-may-1987,0,2.600,0,14.9,0,7.8, , 
29-may-1987,0,1.400,0,16.9,0,8.3, , 
30-may-1987,0,1.200,0,18.2,0,10.6, , 
31-may-1987,0,4.700,0,16.0,0,7.3, , 
01-jun-1987,0,3.200,0,15.9,0,9.9,6.0, 
02-jun-1987,0,8.100,0,12.1,0,10.3,8.8, 
03-jun-1987,0,17.800,0,14.1,0,10.3,9.7, 
04-jun-1987,0,2.500,0,15.2,0,10.7,10.5, 
05-jun-1987,0,14.000,0,13.2,0,10.2,9.1, 
06-jun-1987,0,3.100,0,12.7,0,10.3,9.4, 
07-jun-1987,0,0.100,0,12.4,0,8.7,7.0, 
08-jun-1987,0,0.500,0,16.2,0,7.8,6.3, 
09-jun-1987,0,0.000,0,12.4,0,3.4,-1.0, 
10-jun-1987,0,0.500,0,13.5,0,5.5,4.5, 
11-jun-1987,0,20.100,0,12.1,0,7.0,3.0, 
12-jun-1987,4,0.000,0,13.2,0,5.7,4.7, 
13-jun-1987,0,0.700,0,12.3,0,2.6,8.1, 
14-jun-1987,0,0.700,0,13.3,0,3.5,-0.4, 
15-jun-1987,0,3.100,0,15.1,0,4.7,0.6, 
16-jun-1987,0,2.500,0,13.2,0,5.9,2.7, 
17-jun-1987,0,0.600,0,14.7,0,9.0,8.9, 
18-jun-1987,0,1.600,0,14.8,0,10.3,9.1, 
19-jun-1987,4,0.000,0,19.6,0,7.8,3.8, 
20-jun-1987,0,1.500,0,16.6,0,8.6,5.6, 
21-jun-1987,0,3.700,0,16.8,0,10.3,6.8, 
22-jun-1987,0,0.600,0,19.0,0,10.9,8.9, 
23-jun-1987,0,0.300,0,18.1,0,12.8,12.1, 
24-jun-1987,0,4.400,0,19.1,0,9.0,4.6, 
25-jun-1987,0,6.600,0,18.4,0,13.8,13.1, 
26-jun-1987,0,4.100,0,15.8,0,11.1,10.1, 
27-jun-1987,0,5.800,0,21.9,0,11.6,11.0, 
28-jun-1987,0,0.800,0,20.3,0,15.3,15.0, 
29-jun-1987,0,1.100,0,18.6,0,11.5,8.3, 
30-jun-1987,0,0.600,0,18.5,0,11.0,8.1, 
01-jul-1987,0,0.000,2,16.5,0,8.3,5.0,0.0
02-jul-1987,0,0.000,0,18.9,2,7.0,4.0, 
03-jul-1987,0,0.000,0,20.8,0,1.0,3.1,0.0
04-jul-1987,0,0.000,0,23.9,0,17.3,9.3,0.0
05-jul-1987,0,0.000,0,25.2,0,11.4,7.0,0.0
06-jul-1987,0,0.000,0,25.2,0,13.5,8.4,0.0
07-jul-1987,0,0.000,0,17.3,0,9.7,4.6,0.0
08-jul-1987,4,0.000,0,18.2,0,9.4,5.6,0.0
09-jul-1987,0,0.600,0,20.1,0,12.2,7.1,0.0
10-jul-1987,0,28.100,0,24.6,0,13.2,12.9,0.0
11-jul-1987,0,0.100,0,19.7,0,13.3,10.6,0.0
12-jul-1987,0,0.000,0,19.2,0,13.3,10.3,0.0
13-jul-1987,0,0.000,0,20.3,0,13.7,9.4,0.0
14-jul-1987,0,1.200,0,21.7,0,12.2,7.4,16.0
15-jul-1987,0,10.400,0,17.7,0,14.8,13.1,17.3
16-jul-1987,0,6.400,0,17.8,0,8.6,3.6,15.0
17-jul-1987,0,1.000,0,18.9,0,11.4,9.7,15.8
18-jul-1987,0,4.000,0,15.7,0,8.9,5.0,14.5
19-jul-1987,0,3.900,0,19.1,0,12.5,10.0,15.2
20-jul-1987,0,0.000,0,21.1,0,13.5,6.9,17.0
21-jul-1987,4,0.000,0,20.7,0,14.9,4.9,16.7
22-jul-1987,0,0.000,2,20.0,2,12.0,2.4,16.3
23-jul-1987,0,0.000,0,22.1,0,11.7,6.8,0.0
24-jul-1987,0,0.000,0,17.7,0,11.6,7.0,16.6
25-jul-1987,0,0.700,0,17.3,0,9.4,1.5,15.2
26-jul-1987,0,1.200,0,19.8,0,11.5,9.5,15.3
27-jul-1987,4,0.000,0,18.6,0,12.5,11.2,16.1
28-jul-1987,0,0.100,0,21.6,0,15.0,13.2,16.2
29-jul-1987,0,0.200,0,18.9,0,13.0,10.5,16.4
30-jul-1987,0,0.400,0,18.8,0,10.0,3.9,16.1
31-jul-1987,0,0.200,0,20.1,0,10.0,5.5,16.4
01-aug-1987,0,8.300,0,18.0,0,12.3,4.3,15.4
02-aug-1987,4,0.000,0,18.4,0,12.8,11.2,15.7
03-aug-1987,0,1.200,0,18.8,0,9.9,5.7,14.5
04-aug-1987,0,0.200,0,17.5,0,6.4,0.3,13.7
05-aug-1987,0,0.000,0,17.4,0,6.0,0.2,13.6
06-aug-1987,0,0.000,0,16.6,0,5.9,-0.2,12.7
07-aug-1987,4,0.000,0,14.9,0,5.4,0.1,12.9
08-aug-1987,0,0.000,0,16.7,0,5.4,1.3,14.1
09-aug-1987,0,0.000,0,17.9,0,10.5,7.8,13.9
10-aug-1987,0,5.400,0,19.5,0,8.4,2.5,14.5
11-aug-1987,0,6.300,0,18.1,0,8.3,3.5,15.7
12-aug-1987,0,4.000,0,20.3,0,10.4,4.1,15.2
13-aug-1987,0,0.000,0,19.9,0,10.3,5.6,14.8
14-aug-1987,0,0.100,0,20.0,0,12.6,8.7,15.2
15-aug-1987,4,0.000,0,24.1,0,12.6,8.8,15.6
16-aug-1987,4,0.000,0,24.2,0,15.5,12.2,16.9
17-aug-1987,0,1.000,0,23.2,0,15.8,11.7,18.2
18-aug-1987,1,0.900,2,22.2,0,14.4,9.5,17.6
19-aug-1987,1,1.700,2,19.0,2,13.0,9.0,18.0
20-aug-1987,0,18.700,0,18.9,0,12.7,8.9,18.4
21-aug-1987,0,1.700,0,21.5,0,12.2,7.5,15.8
22-aug-1987,0,0.100,0,18.2,0,13.5,11.7,16.5
23-aug-1987,0,2.000,0,17.1,0,8.6,1.7,14.0
24-aug-1987,4,0.000,0,18.5,0,11.3,5.2,14.7
25-aug-1987,0,2.000,0,17.3,0,5.3,-1.1,13.0
26-aug-1987,0,0.000,0,17.4,0,10.5,5.8,14.5
27-aug-1987,0,0.000,0,18.9,0,7.8,0.5,12.6
28-aug-1987,0,0.500,0,19.8,0,12.7,7.1,15.7
29-aug-1987,4,0.000,0,17.9,0,14.4,10.7,15.8
30-aug-1987,0,0.000,0,18.7,0,11.3,6.3,15.3
31-aug-1987,0,15.300,0,21.5,0,12.2,8.0,15.3
01-sep-1987,4,0.000,0,18.7,0,13.7,-10.8,16.2
02-sep-1987,0,2.400,0,19.7,0,5.0,-0.6,13.1
03-sep-1987,0,0.100,0,19.1,0,12.6,9.6,15.7
04-sep-1987,0,8.400,0,17.7,0,9.6,4.6,13.7
05-sep-1987,0,5.100,0,16.6,0,11.8,7.0,14.1
06-sep-1987,0,1.200,0,16.6,0,10.3,4.1,13.3
07-sep-1987,0,0.900,0,16.9,0,8.3,2.0,12.3
08-sep-1987,0,0.100,0,16.6,0,6.3,1.3,12.0
09-sep-1987,0,4.000,0,15.3,0,10.4,3.9,15.4
10-sep-1987,0,1.500,0,15.9,0,9.1,4.6,12.2
11-sep-1987,0,16.200,0,17.3,0,10.0,5.2,13.2
12-sep-1987,0,0.400,0,17.0,0,11.5,8.9,14.2
13-sep-1987,0,0.300,0,15.8,0,8.2,2.8,11.7
14-sep-1987,0,8.100,0,16.1,0,9.5,5.1,12.0
15-sep-1987,0,0.800,0,14.7,0,7.7,3.3,11.4
16-sep-1987,0,0.100,0,16.3,0,5.6,0.3,11.6
17-sep-1987,0,0.000,0,16.9,0,7.5,0.4,13.1
18-sep-1987,0,0.000,0,14.9,0,7.2,0.4,11.9
19-sep-1987,0,32.800,0,16.8,0,4.8,-1.8,11.1
20-sep-1987,0,3.900,0,19.4,0,9.9,6.8,12.8
21-sep-1987,0,3.400,0,17.2,0,13.6,12.0,14.6
22-sep-1987,0,0.000,0,17.5,0,7.5,2.6,11.7
23-sep-1987,0,1.500,0,15.2,0,10.0,6.0,12.0
24-sep-1987,0,0.700,0,14.0,0,5.6,1.7,10.5
25-sep-1987,0,0.300,0,12.5,0,4.5,-0.5,9.8
26-sep-1987,0,0.100,0,11.7,0,2.6,-2.7,8.8
27-sep-1987,0,0.000,0,12.0,0,5.7,0.1,9.7
28-sep-1987,0,0.000,0,14.6,0,1.7,-4.0,9.2
29-sep-1987,0,0.000,0,14.9,0,0.1,-4.3,8.5
30-sep-1987,0,0.400,0,14.9,0,3.4,-3.5,8.4
01-oct-1987,0,0.000,0,14.7,0,3.6,-2.6,8.9
02-oct-1987,0,2.300,0,13.8,0,7.0,-1.0,9.6
03-oct-1987,0,0.100,0,13.5,0,11.7,-1.0,11.4
04-oct-1987,0,0.300,0,15.2,0,10.9,7.3,11.3
05-oct-1987,0,2.700,0,15.6,0,9.6,4.3,11.6
06-oct-1987,0,3.800,0,15.7,0,4.7,0.5,10.5
07-oct-1987,0,5.600,0,15.7,0,5.2,-1.0,10.5
08-oct-1987,0,4.200,0,15.5,0,5.4,-0.9,9.5
09-oct-1987,0,1.200,0,16.7,0,5.5,0.5,9.0
10-oct-1987,0,0.300,0,9.5,0,0.3,-5.4,6.7
11-oct-1987,0,0.500,0,11.2,1,-1.7,-9.1,6.0
12-oct-1987,0,2.100,0,12.6,1,-0.5,-4.5,7.4
13-oct-1987,0,2.500,0,12.0,0,3.0,-4.5,8.1
14-oct-1987,0,2.700,0,12.7,0,4.8,0.4,7.6
15-oct-1987,0,0.100,0,7.8,0,5.0,1.0,8.2
16-oct-1987,0,1.300,0,11.4,0,4.0,-2.2,7.7
17-oct-1987,0,4.800,0,13.3,0,3.7,2.3,6.7
18-oct-1987,0,0.200,0,14.7,0,6.7,3.5,9.2
19-oct-1987,0,0.500,0,13.6,0,4.8,0.1,8.9
20-oct-1987,0,33.700,0,12.5,0,5.4,0.0,9.0
21-oct-1987,0,13.900,0,7.2,0,6.5,4.1,8.0
22-oct-1987,0,0.000,0,10.7,0,3.8,0.3,7.0
23-oct-1987,0,0.000,0,9.5,1,-1.1,-5.9,6.0
24-oct-1987,4,0.000,0,9.1,1,-2.9,-5.8,5.5
25-oct-1987,0,0.700,0,11.7,0,0.3,-1.3,6.7
26-oct-1987,0,12.900,0,12.3,0,8.0,4.5,8.3
27-oct-1987,0,0.400,0,8.5,0,2.7,-3.5,7.3
28-oct-1987,0,0.300,0,11.4,0,0.3,-6.0,5.4
29-oct-1987,0,0.200,0,10.8,0,2.8,-1.5,7.3
30-oct-1987,0,1.600,0,12.1,0,8.7,5.1,8.0
31-oct-1987,0,0.100,0,11.0,0,8.8,5.3,8.9
01-nov-1987,4,0.000,0,11.0,0,2.1,-1.8,7.0
02-nov-1987,4,0.000,0,12.3,0,5.8,4.7,8.7
03-nov-1987,0,0.000,0,11.7,0,8.7,5.8,8.9
04-nov-1987,0,0.000,0,11.4,0,7.7,1.3,8.7
05-nov-1987,0,0.000,0,10.2,1,-0.1,-5.2,5.3
06-nov-1987,0,0.000,0,9.7,1,-1.5,-6.3,4.8
07-nov-1987,0,6.000,0,10.3,0,0.7,-0.6,7.3
08-nov-1987,0,9.300,0,10.3,0,7.3,5.0,8.3
09-nov-1987,0,4.100,0,9.2,0,7.2,4.8,8.1
10-nov-1987,0,3.300,0,10.0,0,7.0,3.0,8.0
11-nov-1987,0,11.300,0,11.2,0,3.2,-1.3,5.9
12-nov-1987,0,12.300,0,6.8,0,2.3,-1.7,4.8
13-nov-1987,0,0.300,0,8.2,0,3.7,-0.3,4.8
14-nov-1987,0,10.300,0,10.8,0,2.6,-2.5,3.7
15-nov-1987,0,3.300,0,12.5,0,4.8,1.6,7.3
16-nov-1987,0,0.400,0,10.2,0,8.3,4.9,7.7
17-nov-1987,0,0.100,0,13.0,0,6.2,2.0,6.2
18-nov-1987,0,3.000,0,13.3,0,11.7,5.7,9.3
19-nov-1987,0,0.300,0,9.9,0,8.2,6.7,8.9
20-nov-1987,0,0.100,0,9.0,0,3.6,0.8,6.6
21-nov-1987,0,0.200,0,9.0,0,4.0,1.7,8.7
22-nov-1987,0,0.600,0,6.7,0,5.3,1.6,8.6
23-nov-1987,0,0.100,0,8.2,0,1.2,-3.5,4.7
24-nov-1987,0,0.000,0,6.2,0,2.4,-1.5,4.0
25-nov-1987,0,0.200,0,6.2,1,-1.3,-6.7,2.3
26-nov-1987,0,1.300,0,4.1,0,0.7,-5.5,3.0
27-nov-1987,0,0.200,0,5.3,0,1.7,-0.9,4.7
28-nov-1987,0,5.900,0,7.8,0,1.4,0.1,4.9
29-nov-1987,0,0.100,0,7.8,0,2.6,0.5,5.8
30-nov-1987,0,0.000,0,6.3,1,-2.7,-9.5,2.2
01-dec-1987,0,0.200,0,8.3,1,-2.1,-9.0,1.7
02-dec-1987,4,0.000,0,7.6,0,0.1,-7.0,4.3
03-dec-1987,4,0.000,0,5.9,0,5.0,1.5,4.5
04-dec-1987,0,0.200,0,7.1,0,4.4,2.0,4.7
05-dec-1987,4,0.000,0,7.1,0,5.1,2.8,5.3
06-dec-1987,0,0.400,0,7.8,0,5.6,2.2,5.3
07-dec-1987,0,0.100,0,6.6,0,4.8,2.2,5.3
08-dec-1987,0,0.000,0,5.6,0,0.5,-7.0,3.8
09-dec-1987,0,0.000,0,3.1,1,-6.3,-13.0,1.6
10-dec-1987,0,0.000,0,4.3,1,-5.6,-11.8,1.0
11-dec-1987,0,0.400,0,6.8,1,-4.5,-11.1,0.7
12-dec-1987,0,0.100,0,6.8,1,-4.3,-9.2,1.2
13-dec-1987,0,0.000,0,5.3,1,-0.3,-7.2,2.0
14-dec-1987,0,0.000,0,5.0,0,1.8,-9.1,1.5
15-dec-1987,0,3.400,0,9.6,0,1.4,-5.0,3.4
16-dec-1987,0,3.000,0,12.5,0,4.8,2.6,5.7
17-dec-1987,1,6.300,2,12.5,0,6.9,1.0,6.6
18-dec-1987,1,0.400,2,13.3,2,7.0,3.0,6.5
19-dec-1987,0,0.600,0,12.2,0,7.0,3.2,6.7
20-dec-1987,0,2.500,0,12.8,0,8.7,6.2,8.8
21-dec-1987,0,0.400,0,11.6,0,9.8,6.8,8.8
22-dec-1987,0,0.200,0,9.9,1,-0.1,-4.2,4.3
23-dec-1987,0,0.100,0,10.3,0,0.3,7.6,7.2
24-dec-1987,0,1.100,0,11.9,0,8.9,5.5,7.5
25-dec-1987,0,6.400,0,11.9,0,3.9,-0.1,5.3
26-dec-1987,0,12.100,0,12.8,0,4.6,1.4,8.3
27-dec-1987,0,2.500,0,13.1,0,7.6,3.8,8.4
28-dec-1987,0,3.000,0,13.2,0,9.3,5.1,9.1
29-dec-1987,0,3.900,0,12.8,0,10.2,6.0,9.1
30-dec-1987,0,5.700,0,12.7,0,4.5,-2.0,5.7
31-dec-1987,0,1.300,0,10.8,0,6.2,2.9,7.3
01-jan-1988,0,5.800,0,12.8,0,6.5,2.5,7.3
02-jan-1988,0,6.800,0,7.2,0,5.5,1.8,7.1
03-jan-1988,0,9.700,0,8.9,0,4.7,0.7,5.3
04-jan-1988,0,0.800,0,6.3,0,0.5,-2.0,4.2
05-jan-1988,0,2.700,0,5.4,0,0.3,-3.7,4.1
06-jan-1988,0,0.200,0,6.0,0,3.2,-0.3,4.5
07-jan-1988,0,5.500,0,8.9,1,-1.2,-7.1,1.8
08-jan-1988,0,3.200,0,12.4,1,-1.0,-6.0,4.7
09-jan-1988,0,1.800,0,10.4,0,8.8,6.7,8.3
10-jan-1988,0,0.100,0,6.6,0,2.6,-1.5,3.6
11-jan-1988,0,0.700,0,8.7,0,0.6,-3.5,2.3
12-jan-1988,0,6.700,0,8.5,0,0.6,-2.6,5.7
13-jan-1988,0,0.200,0,8.4,0,3.7,-0.5,3.8
14-jan-1988,0,0.300,0,8.4,0,3.4,-1.0,2.7
15-jan-1988,0,0.300,0,7.8,0,1.4,-3.2,2.3
16-jan-1988,0,5.700,0,6.2,1,-0.1,-3.2,3.0
17-jan-1988,0,0.200,0,6.5,0,0.7,-0.3,4.8
18-jan-1988,0,20.700,0,10.7,1,-1.5,-6.6,2.5
19-jan-1988,0,1.800,0,7.2,0,1.4,-3.8,6.0
20-jan-1988,0,0.200,0,4.8,0,1.6,-2.7,2.8
21-jan-1988,0,4.200,0,4.2,1,-1.0,-9.5,1.7
22-jan-1988,0,14.300,0,6.6,1,-0.5,5.7,2.0
23-jan-1988,0,8.800,0,10.3,0,0.5,-3.5,1.7
24-jan-1988,0,1.800,0,9.3,0,4.7,0.6,4.7
25-jan-1988,0,2.500,0,6.4,0,1.2,-5.2,3.7
26-jan-1988,0,1.000,0,6.7,0,0.9,-4.8,3.7
27-jan-1988,0,0.400,0,6.8,0,1.5,-4.5,4.7
28-jan-1988,0,14.900,0,6.7,0,4.0,-1.4,4.3
29-jan-1988,0,0.800,0,7.6,0,3.0,0.2,4.3
30-jan-1988,0,0.800,0,5.8,0,2.2,-2.0,3.2
31-jan-1988,0,9.000,0,7.1,0,1.2,-3.1,2.0
01-feb-1988,0,9.000,0,8.3,0,1.7,-1.8,4.0
02-feb-1988,0,1.200,0,5.3,0,3.8,0.1,4.0
03-feb-1988,0,9.500,0,7.4,1,-0.2,-5.2,1.7
04-feb-1988,0,2.700,0,5.6,0,0.1,-3.4,2.3
05-feb-1988,0,0.200,0,6.2,0,1.2,-2.7,2.4
06-feb-1988,0,0.200,0,5.1,1,-2.4,-11.0,1.3
07-feb-1988,0,6.700,0,7.5,1,-1.4,-8.1,1.1
08-feb-1988,0,3.300,0,8.6,0,0.5,-3.1,1.0
09-feb-1988,0,8.900,2,4.5,0,0.7,-2.6,2.4
10-feb-1988,0,6.200,0,4.7,0,0.6,-2.0,1.8
11-feb-1988,0,0.300,0,5.8,0,0.4,-3.5,1.3
12-feb-1988,0,2.700,0,9.5,1,-1.0,-7.3,0.8
13-feb-1988,0,2.600,0,9.8,1,-0.1,-3.6,4.6
14-feb-1988,0,6.600,0,10.9,0,1.7,-3.4,3.2
15-feb-1988,0,7.100,0,7.7,0,5.1,2.7,6.2
16-feb-1988,0,0.200,0,7.2,1,-0.7,-8.6,1.8
17-feb-1988,0,0.100,0,8.3,1,-0.6,-7.6,1.8
18-feb-1988,0,0.100,0,9.4,0,1.8,-1.8,4.5
19-feb-1988,0,0.000,0,8.8,0,6.9,2.9,5.2
20-feb-1988,0,0.100,0,7.8,0,5.7,2.4,5.3
21-feb-1988,4,0.000,0,10.8,0,4.6,1.0,5.3
22-feb-1988,0,0.200,0,8.8,0,5.1,1.5,5.7
23-feb-1988,0,0.100,0,7.3,0,2.5,-3.0,4.0
24-feb-1988,0,0.000,0,7.3,0,2.3,-3.3,3.5
25-feb-1988,0,3.000,0,5.4,1,-0.8,-8.5,2.3
26-feb-1988,0,0.600,0,8.1,0,2.0,-4.8,2.9
27-feb-1988,0,0.200,0,9.3,0,3.8,0.9,5.2
28-feb-1988,0,0.000,0,9.3,0,6.4,0.8,5.7
29-feb-1988,0,0.800,0,4.8,0,1.1,-4.7,2.8
01-mar-1988,4,0.000,0,5.3,0,1.3,-3.5,3.0
02-mar-1988,0,2.200,0,7.2,0,0.3,-7.5,2.7
03-mar-1988,0,0.300,0,6.1,0,2.2,-2.3,3.5
04-mar-1988,0,2.200,0,5.3,1,-1.7,-9.1,1.6
05-mar-1988,0,0.800,0,9.3,1,-0.5,-6.7,1.9
06-mar-1988,0,0.700,0,8.8,0,0.9,-2.3,5.3
07-mar-1988,0,0.700,0,10.7,0,6.7,3.3,6.3
08-mar-1988,0,0.300,0,10.7,0,5.3,0.3,5.7
09-mar-1988,0,4.800,0,9.8,0,6.3,0.5,6.7
10-mar-1988,0,1.800,0,10.3,0,0.7,-6.0,3.6
11-mar-1988,0,0.400,0,10.3,0,2.4,-0.8,6.4
12-mar-1988,0,0.800,0,12.1,0,6.5,2.0,6.0
13-mar-1988,0,10.700,0,9.0,0,5.7,1.8,6.3
14-mar-1988,0,11.500,0,9.8,0,3.9,1.9,6.2
15-mar-1988,0,10.800,0,8.8,0,4.3,2.5,7.4
16-mar-1988,0,0.300,0,7.8,0,3.9,-2.9,5.3
17-mar-1988,0,8.700,0,7.5,0,0.3,-6.1,4.6
18-mar-1988,0,10.000,0,11.6,0,2.7,2.7,5.8
19-mar-1988,0,0.400,0,12.4,0,5.7,-3.5,8.4
20-mar-1988,0,5.400,0,12.4,0,6.7,-2.3,7.5
21-mar-1988,0,2.500,0,12.8,0,5.7,-0.6,7.3
22-mar-1988,0,13.700,0,10.4,0,5.2,3.2,7.4
23-mar-1988,0,1.000,0,11.1,0,5.3,-1.5,6.5
24-mar-1988,0,7.300,0,8.8,0,5.3,0.5,6.8
25-mar-1988,0,2.500,0,9.5,0,3.6,2.5,5.8
26-mar-1988,0,0.100,0,10.3,0,4.0,-1.8,5.3
27-mar-1988,0,2.300,0,11.9,0,4.3,-2.3,5.3
28-mar-1988,0,1.400,0,11.2,0,5.0,-1.3,6.5
29-mar-1988,0,1.000,0,10.2,1,-0.4,-7.8,4.7
30-mar-1988,0,2.600,0,11.3,0,3.7,-0.8,5.8
31-mar-1988,0,2.500,0,11.3,0,4.2,-2.4,6.2
01-apr-1988,0,2.300,0,9.8,0,4.3,-2.3,7.0
02-apr-1988,0,0.100,0,11.3,1,-1.8,-9.5,4.4
03-apr-1988,0,0.000,0,12.7,0,3.7,-4.5,6.3
04-apr-1988,4,0.000,0,15.2,0,0.6,-6.5,6.0
05-apr-1988,4,0.000,0,13.8,1,-1.7,-11.0,5.2
06-apr-1988,4,0.000,0,11.5,0,1.9,-4.2,6.0
07-apr-1988,0,0.000,0,10.7,0,4.3,0.8,8.3
08-apr-1988,0,0.000,0,11.5,0,3.2,-2.2,6.8
09-apr-1988,0,0.000,0,9.9,0,2.3,3.2,6.5
10-apr-1988,0,0.000,0,11.3,0,0.4,-4.5,5.8
11-apr-1988,0,0.000,0,13.6,0,2.1,-4.1,6.8
12-apr-1988,0,0.000,0,12.2,1,-0.6,-8.0,7.3
13-apr-1988,0,0.000,0,13.0,0,2.9,-4.1,7.6
14-apr-1988,4,0.000,0,12.0,0,2.2,-6.5,6.7
15-apr-1988,0,5.000,0,12.8,0,7.1,5.6,9.3
16-apr-1988,0,1.800,0,16.2,0,10.7,7.6,10.2
17-apr-1988,0,6.500,0,15.1,0,10.3,4.0,11.2
18-apr-1988,0,0.200,0,15.7,0,10.3,5.5,10.8
19-apr-1988,0,1.300,0,15.8,0,8.4,2.5,10.4
20-apr-1988,0,2.600,0,15.1,0,7.3,1.0,10.2
21-apr-1988,0,0.100,0,16.1,0,9.2,4.3,10.7
22-apr-1988,0,0.000,0,14.5,0,7.5,0.7,10.6
23-apr-1988,0,0.000,0,10.8,0,6.8,4.6,10.2
24-apr-1988,0,0.000,0,10.6,0,3.6,-3.0,9.3
25-apr-1988,0,0.000,0,13.8,1,-0.3,-7.8,7.3
26-apr-1988,0,1.200,0,13.5,0,1.8,-2.7,9.6
27-apr-1988,0,0.100,0,10.1,0,6.1,2.5,9.9
28-apr-1988,0,0.000,0,10.3,0,2.8,-6.1,8.8
29-apr-1988,0,0.000,0,9.7,0,4.5,-4.2,8.2
30-apr-1988,0,3.300,0,9.7,0,3.3,-4.7,8.8
01-may-1988,0,3.700,0,13.0,0,7.5,3.7,9.3
02-may-1988,0,7.600,0,14.8,0,8.9,4.3,9.7
03-may-1988,0,5.500,0,10.7,0,8.7,5.3,10.6
04-may-1988,0,3.200,0,13.4,0,8.1,5.4,10.3
05-may-1988,0,0.200,0,14.0,0,4.5,-3.3,9.5
06-may-1988,0,0.000,0,16.0,0,4.8,-2.5,9.3
07-may-1988,0,0.300,0,15.8,0,3.7,-7.0,9.7
08-may-1988,4,0.000,0,15.8,0,9.0,5.8,11.2
09-may-1988,0,0.000,0,15.7,0,4.3,-1.0,9.4
10-may-1988,0,0.000,0,17.0,0,6.8,1.3,11.0
11-may-1988,0,0.000,0,17.7,0,6.0,-1.2,10.8
12-may-1988,0,2.800,0,13.8,0,5.3,-2.1,11.2
13-may-1988,4,0.000,0,15.8,0,10.6,6.4,12.1
14-may-1988,0,0.000,0,18.2,0,3.7,-3.1,11.6
15-may-1988,0,0.000,0,19.2,0,10.5,6.5,12.3
16-may-1988,0,0.000,0,20.9,0,7.0,0.7,11.7
17-may-1988,0,0.000,0,13.1,0,5.7,-0.9,15.3
18-may-1988,0,1.800,0,12.4,0,3.4,-2.2,10.6
19-may-1988,0,0.100,0,12.8,0,1.7,-4.3,9.7
20-may-1988,0,0.000,0,14.3,0,2.6,-2.0,10.0
21-may-1988,0,0.000,0,15.7,0,8.2,3.7,11.4
22-may-1988,0,0.300,0,16.7,0,5.8,-1.7,11.3
23-may-1988,0,11.900,2,16.7,0,10.3,5.1,12.4
24-may-1988,0,8.900,0,14.6,2,10.0,4.0,12.0
25-may-1988,0,5.900,0,14.8,0,4.7,-0.4,9.6
26-may-1988,0,0.600,0,15.2,0,3.6,-3.2,10.2
27-may-1988,0,5.800,0,15.1,0,5.5,-0.6,10.7
28-may-1988,0,4.200,0,10.8,0,8.3,4.0,11.7
29-may-1988,0,7.500,0,15.4,0,8.2,4.6,11.5
30-may-1988,0,2.800,0,14.3,0,4.7,-1.7,11.3
31-may-1988,0,1.200,0,15.9,0,9.0,5.8,12.3
01-jun-1988,0,0.200,0,15.8,0,8.8,4.8,12.2
02-jun-1988,0,0.800,0,16.7,0,6.2,0.3,11.6
03-jun-1988,0,5.800,0,14.5,0,7.8,2.8,12.2
04-jun-1988,0,0.200,0,14.8,0,6.7,0.8,11.7
05-jun-1988,0,0.100,0,15.9,0,6.4,1.2,12.0
06-jun-1988,0,20.000,0,13.8,0,11.3,7.8,13.4
07-jun-1988,0,1.300,0,15.3,0,10.8,8.2,13.2
08-jun-1988,0,0.100,0,18.3,0,9.3,2.8,12.4
09-jun-1988,0,0.000,0,17.7,0,11.1,5.9,13.2
10-jun-1988,0,0.000,0,16.7,0,11.2,6.3,14.2
11-jun-1988,0,0.000,0,19.3,0,7.7,2.6,14.0
12-jun-1988,0,0.000,0,18.3,0,9.0,2.4,14.3
13-jun-1988,0,0.000,0,20.9,0,6.4,-0.1,13.7
14-jun-1988,0,0.000,0,24.3,0,6.3,0.3,13.8
15-jun-1988,0,0.000,0,21.1,0,8.4,3.5,15.3
16-jun-1988,0,0.000,0,17.9,0,11.2,8.8,15.7
17-jun-1988,0,0.000,0,20.5,0,10.4,3.7,15.2
18-jun-1988,0,0.000,0,20.5,0,12.3,8.3,16.7
19-jun-1988,0,0.200,0,20.4,0,14.3,10.8,16.7
20-jun-1988,0,0.800,0,19.7,0,14.2,9.0,16.7
21-jun-1988,0,0.400,0,17.3,0,12.3,7.6,15.7
22-jun-1988,0,0.000,0,22.6,0,5.8,-0.8,13.8
23-jun-1988,0,0.000,0,23.0,0,9.3,2.3,15.0
24-jun-1988,0,0.000,0,21.8,0,9.1,3.3,15.3
25-jun-1988,0,6.600,0,21.5,0,12.1,3.0,17.0
26-jun-1988,0,0.200,0,16.7,0,11.3,8.3,16.0
27-jun-1988,0,0.000,0,18.3,0,11.4,4.3,15.7
28-jun-1988,0,0.000,0,20.5,0,8.9,3.8,15.3
29-jun-1988,0,0.000,0,18.1,0,9.0,3.6,16.2
30-jun-1988,0,1.500,0,19.7,0,13.2,9.6,16.2
01-jul-1988,0,4.000,0,16.3,0,11.6,6.3,15.6
02-jul-1988,0,10.400,0,16.8,0,7.4,7.4,14.7
03-jul-1988,4,0.000,0,18.2,0,11.3,7.9,15.3
04-jul-1988,0,0.000,0,19.1,0,10.8,5.8,14.9
05-jul-1988,0,0.300,0,16.7,0,10.6,6.0,15.0